This demonstration page uses our WeatherBlox Daily Observations layout. Learn more.

Left ArrowRight Arrow

53.62937, 11.41316

Hourly Observations for December 16, 2021

Temp ( °F °C ) Dew Point ( °F °C ) Humidity (%) Winds ( mph kmh ) Pressure ( in mb ) Visibility ( mi km ) Precip ( " mm )
12:20 am 00:20 Cloudy 48 9 43 6 82 82 W 9 15 30.39 1029 30 48 N/A
12:50 am 00:50 Cloudy 48 9 43 6 82 82 W 10 17 30.39 1029 30 48 N/A
1:20 am 01:20 Cloudy 48 9 43 6 82 82 WSW 10 17 30.39 1029 30 48 N/A
1:50 am 01:50 Mostly Cloudy 48 9 45 7 87 87 W 9 15 30.39 1029 30 48 N/A
2:20 am 02:20 Cloudy 48 9 45 7 87 87 W 8 13 30.39 1029 30 48 N/A
2:50 am 02:50 Cloudy 46 8 45 7 93 93 W 9 15 30.39 1029 4 7 N/A
3:20 am 03:20 Cloudy 46 8 45 7 93 93 WSW 7 11 30.42 1030 5 8 N/A
3:50 am 03:50 Cloudy 46 8 45 7 93 93 WSW 8 13 30.42 1030 4 6 N/A
4:20 am 04:20 Mostly Cloudy 46 8 45 7 93 93 WSW 7 11 30.42 1030 3 5 N/A
4:50 am 04:50 Cloudy 46 8 45 7 93 93 WSW 7 11 30.42 1030 3 5 N/A
5:20 am 05:20 Cloudy 46 8 46 8 100 100 WSW 6 9 30.42 1030 3 5 N/A
5:50 am 05:50 Cloudy 46 8 46 8 100 100 W 6 9 30.42 1030 3 5 N/A
6:20 am 06:20 Mostly Cloudy 46 8 46 8 100 100 W 5 7 30.45 1031 3 4 N/A
6:50 am 06:50 Cloudy 46 8 46 8 100 100 W 7 11 30.45 1031 3 4 N/A
7:20 am 07:20 Mostly Cloudy 48 9 46 8 94 94 W 7 11 30.45 1031 3 4 N/A
7:50 am 07:50 Cloudy with Mist and Fog 48 9 46 8 94 94 W 7 11 30.48 1032 3 5 N/A
8:20 am 08:20 Mostly Cloudy with Mist and Fog 48 9 46 8 94 94 WNW 6 9 30.51 1033 3 5 N/A
8:50 am 08:50 Partly Cloudy 48 9 46 8 94 94 WNW 6 9 30.51 1033 30 48 N/A
9:20 am 09:20 Mostly Sunny 46 8 45 7 93 93 W 5 7 30.51 1033 30 48 N/A
9:50 am 09:50 Partly Cloudy 46 8 45 7 93 93 VRB 2 4 30.54 1034 30 48 N/A
10:20 am 10:20 Mostly Cloudy 46 8 46 8 100 100 VRB 2 4 30.54 1034 30 48 N/A
10:50 am 10:50 Mostly Cloudy 48 9 45 7 87 87 W 6 9 30.54 1034 30 48 N/A
11:20 am 11:20 Partly Cloudy 48 9 45 7 87 87 WNW 8 13 30.54 1034 30 48 N/A
11:50 am 11:50 Mostly Sunny 48 9 45 7 87 87 W 7 11 30.54 1034 30 48 N/A
12:20 pm 12:20 Mostly Sunny 48 9 45 7 87 87 WNW 8 13 30.54 1034 30 48 N/A
12:50 pm 12:50 Mostly Sunny 48 9 45 7 87 87 W 8 13 30.56 1035 7 11 N/A
1:20 pm 13:20 Mostly Sunny 50 10 45 7 82 82 W 8 13 30.54 1034 7 11 N/A
1:50 pm 13:50 Mostly Sunny 50 10 45 7 82 82 W 7 11 30.56 1035 7 11 N/A
2:20 pm 14:20 Mostly Sunny 48 9 43 6 82 82 W 8 13 30.56 1035 7 11 N/A
2:50 pm 14:50 Mostly Sunny 48 9 43 6 82 82 W 7 11 30.56 1035 7 11 N/A
3:20 pm 15:20 Mostly Sunny 48 9 43 6 82 82 W 9 15 30.56 1035 7 11 N/A
3:50 pm 15:50 Mostly Sunny 46 8 43 6 87 87 W 8 13 30.57 1035 7 11 N/A
4:20 pm 16:20 Mostly Clear 46 8 43 6 87 87 W 7 11 30.57 1035 7 11 N/A
4:50 pm 16:50 Mostly Clear 45 7 43 6 93 93 W 6 9 30.59 1036 7 11 N/A
5:20 pm 17:20 Mostly Clear 45 7 43 6 93 93 W 7 11 30.59 1036 30 48 N/A
5:50 pm 17:50 Mostly Clear 45 7 41 5 87 87 W 6 9 30.59 1036 30 48 N/A
6:20 pm 18:20 Mostly Cloudy 45 7 43 6 93 93 W 6 9 30.62 1037 30 48 N/A
6:50 pm 18:50 Cloudy 45 7 43 6 93 93 WNW 6 9 30.62 1037 30 48 N/A
7:20 pm 19:20 Mostly Cloudy 45 7 41 5 87 87 W 7 11 30.62 1037 30 48 N/A
7:50 pm 19:50 Partly Cloudy 43 6 41 5 93 93 W 7 11 30.62 1037 30 48 N/A
8:20 pm 20:20 Partly Cloudy 43 6 41 5 93 93 W 7 11 30.62 1037 30 48 N/A
8:50 pm 20:50 Partly Cloudy 43 6 41 5 93 93 W 8 13 30.62 1037 30 48 N/A
9:20 pm 21:20 Mostly Cloudy 43 6 39 4 87 87 W 7 11 30.62 1037 30 48 N/A
9:50 pm 21:50 Mostly Cloudy 43 6 41 5 93 93 W 7 11 30.62 1037 30 48 N/A
10:20 pm 22:20 Mostly Cloudy 41 5 41 5 100 100 W 5 7 30.62 1037 30 48 N/A
10:50 pm 22:50 Cloudy 43 6 41 5 93 93 W 7 11 30.62 1037 30 48 N/A
11:20 pm 23:20 Cloudy 43 6 41 5 93 93 W 8 13 30.62 1037 30 48 N/A
11:50 pm 23:50 Cloudy 43 6 41 5 93 93 WNW 8 13 30.65 1038 30 48 N/A

Powered by AerisWeather